Tracking 23752 objects as of 23-Oct-2021
HD Live streaming from Space Station
objects crossing your sky now

HINCUBE

Track HINCUBE now!
10-day predictions
HINCUBE is classified as:


NORAD ID: 39445
Int'l Code: 2013-066AF
Perigee: 587.6 km
Apogee: 670.3 km
Inclination: 97.6 °
Period: 97.1 minutes
Semi major axis: 6999 km
RCS: Unknown
Launch date: November 21, 2013
Source: Norway (NOR)
Launch site: Orenburg, Russia (OREN)

Uplink (MHz):
Downlink (MHz): 437.305
Beacon (MHz):
Mode:
Call sign:
Status: Inactive

aabbcc
Your satellite tracking list
Your tracking list is empty




NASA's NSSDC Master Catalog

Two Line Element Set (TLE):
1 39445U 13066AF  21295.95595193  .00000562  00000-0  74382-4 0  9997
2 39445  97.5987 275.9984 0059086  94.5758 266.2208 14.82392839426458
Source of the keplerian elements: AFSPC